[[{"header":{"parameterUnit":"m.s-1","parameterCategory":2,"la1":30.2991,"la2":30.254,"lo1":-89.0895,"lo2":-89.0444,"dy":0.0017,"dx":0.0017,"nx":28,"ny":28,"refTime":"2024-06-06T21:00:00:Z","depth":"0","parameterNumber":2,"parameterNumberName":"U-component_of_CURRENTS"},"data":[0,0,0,0,0,0,0,0,0,0,0,0,0,0,0,0,0,0,0,0,0,0,0,0,0,0,0,0,0,0,0,0,0,0,0,0,0,0,0,0,0,0,0,0,0,0,0,0,0,0,0,0,0,0,0,0,0,0,0.3091,0.3091,0,0.3083,0.3083,0.3082,0.3052,0.3051,0.3051,0.3051,0.3008,0.3007,0.3006,0,0,0,0,0,0,0,0,0,0,0,0,0,0.309,0.3089,0.3091,0.3091,0.3092,0.3083,0.3083,0.3082,0.3052,0.3051,0.3051,0.305,0.3008,0.3007,0.3006,0,0,0,0,0,0,0,0,0,0,0,0,0,0.3084,0.3089,0.3091,0.3078,0.3076,0.3083,0.3082,0.3082,0.3052,0.3051,0.3051,0.305,0.3008,0.3007,0.3006,0.3012,0,0,0.3003,0.3002,0,0,0,0,0,0,0,0,0.3084,0.3084,0.3079,0.3079,0.3077,0.307,0.3066,0.3058,0.3052,0.3058,0.3051,0.305,0.3028,0.3025,0.3021,0.301,0.3008,0.3003,0.3002,0.3002,0.3001,0,0,0,0,0,0,0,0.3085,0.3084,0.3085,0.308,0.3078,0.3075,0.3073,0.3065,0.3044,0.3058,0.3056,0.306,0.3026,0.3023,0.302,0.3008,0.3003,0.3002,0.3001,0.3001,0.3031,0.3033,0,0,0,0,0,0,0.3092,0.3084,0.3085,0.3085,0.3083,0.3076,0.3073,0.3071,0.3045,0.3041,0.3061,0.3059,0.3025,0.3021,0.3018,0.3052,0.3002,0.3,0.3,0.303,0.3031,0.3033,0,0,0,0,0,0,0.3092,0.3092,0.3086,0.3087,0.3086,0.3077,0.3074,0.3071,0.3069,0.3048,0.3043,0.3062,0.3024,0.302,0.3022,0.3049,0.3,0.2999,0.3028,0.303,0.3032,0.31,0,0,0,0,0,0,0.3091,0.3091,0.3093,0.3087,0.3087,0.309,0.3075,0.3071,0.3074,0.3071,0.3048,0.3043,0.3023,0.3024,0.3021,0.3046,0.2998,0.3026,0.3029,0.3032,0.3096,0.3105,0.3112,0,0,0,0,0,0.3091,0.3093,0.3093,0.3094,0.3089,0.3091,0.309,0.3079,0.3075,0.3075,0.3068,0.3044,0.304,0.3024,0.302,0.3046,0.3025,0.3028,0.3031,0.3093,0.3103,0.3112,0,0,0,0,0,0,0.3091,0.3091,0.309,0.3091,0.3094,0.3087,0.3088,0.3086,0.3081,0.3078,0.3057,0.3053,0.3066,0.3049,0.3032,0.3065,0.3031,0.3033,0.3079,0.3088,0.3096,0.3099,0.2997,0,0,0,0,0,0.3095,0.3094,0.3097,0.3098,0.3101,0.3098,0.3099,0.3095,0.3091,0.3087,0.3073,0.3068,0.3078,0.3076,0.3071,0.3085,0.3086,0.3102,0.3109,0.3116,0.3118,0.3154,0.3165,0.3044,0.3044,0.3044,0,0,0.3093,0.3095,0.3094,0.3098,0.3098,0.3112,0.3096,0.31,0.3116,0.3084,0.3095,0.309,0.3088,0.3106,0.3111,0.3094,0.3154,0.312,0.3126,0.3124,0.3158,0.317,0.318,0.3046,0.3046,0.3045,0,0,0.3096,0.3095,0.3099,0.3108,0.3117,0.312,0.3125,0.3123,0.3127,0.3145,0.3133,0.3147,0.3148,0.3154,0.3161,0.321,0.3194,0.3209,0.325,0.3285,0.3295,0.3304,0.3332,0.3343,0.3213,0.3213,0.3213,0,0.3097,0.31,0.3101,0.3117,0.3125,0.3128,0.3141,0.3156,0.3155,0.3162,0.3157,0.3183,0.3177,0.3215,0.3236,0.3228,0.3241,0.3214,0.3296,0.3304,0.3312,0.3339,0.335,0.3217,0.3216,0.3216,0.3216,0,0.3107,0.3115,0.3119,0.314,0.3154,0.3161,0.3185,0.3198,0.3209,0.3219,0.3251,0.3256,0.3267,0.3281,0.3277,0.3331,0.332,0.3302,0.3271,0.3329,0.3353,0.3363,0.3222,0.3221,0.322,0.3219,0,0,0.3091,0.3119,0.3121,0.3133,0.3163,0.3172,0.3214,0.324,0.3272,0.3285,0.3328,0.3354,0.3347,0.3355,0.3353,0.339,0.3466,0.3375,0.3375,0.3402,0.3545,0.3489,0.3494,0.3463,0.3465,0.3467,0.3543,0,0.3094,0.3118,0.3136,0.3163,0.3174,0.3202,0.3242,0.3274,0.3306,0.3351,0.3374,0.3414,0.338,0.3403,0.3431,0.3463,0.3494,0.3447,0.3485,0.3486,0.3429,0.3505,0.3366,0.3418,0.3552,0.3554,0.3555,0,0.3093,0.3109,0.313,0.317,0.318,0.3206,0.3263,0.3299,0.3369,0.3401,0.3438,0.3461,0.3517,0.3491,0.3555,0.3527,0.3537,0.3558,0.3561,0.3489,0.3449,0.338,0.3431,0.3348,0.3571,0.357,0.3568,0,0.3064,0.3102,0.3114,0.3127,0.3181,0.3203,0.3236,0.3303,0.3341,0.3437,0.3486,0.3536,0.358,0.3608,0.3633,0.3607,0.3711,0.3676,0.3631,0.3627,0.3506,0.3487,0.3475,0.3722,0.3721,0.3721,0.3721,0,0.3047,0.3057,0.3102,0.3109,0.3137,0.3187,0.3231,0.3284,0.337,0.342,0.3498,0.3556,0.3615,0.367,0.3676,0.3689,0.3737,0.3655,0.365,0.3526,0.3509,0.3425,0.338,0.3724,0.3723,0.3723,0.3722,0,0.3003,0.303,0.3048,0.3103,0.3119,0.314,0.3211,0.3248,0.3348,0.3428,0.3467,0.3588,0.3668,0.3715,0.3784,0.3739,0.3657,0.3753,0.3601,0.3576,0.3428,0.3392,0.3233,0.314,0.3717,0.3716,0.3716,0,0.2978,0.2983,0.3029,0.3036,0.3056,0.3095,0.3121,0.3218,0.3266,0.3431,0.3468,0.3596,0.366,0.375,0.3728,0.3744,0.3625,0.36,0.3517,0.3417,0.3374,0.3226,0.3149,0.3392,0.3388,0.3386,0.3383,0,0.2935,0.2953,0.2967,0.2982,0.3003,0.3027,0.3079,0.3113,0.3236,0.3312,0.3425,0.3505,0.3618,0.3578,0.3609,0.3594,0.3414,0.3543,0.3481,0.3156,0.2952,0.286,0.3349,0.3359,0.3362,0.3363,0.3365,0.3366,0.29,0.2894,0.2912,0.2909,0.2933,0.2943,0.2923,0.2995,0.3047,0.3123,0.3291,0.3349,0.3411,0.3442,0.3404,0.3269,0.3251,0.3152,0.3132,0.3003,0.2851,0.3287,0.3262,0.3263,0.3265,0.3266,0.3267,0,0.2834,0.2828,0.2835,0.282,0.2794,0.2843,0.2869,0.2829,0.2825,0.2953,0.3023,0.3091,0.3062,0.3089,0.3013,0.2881,0.2739,0.2792,0.2562,0.2521,0.2955,0.2881,0.2721,0.2721,0.2721,0.2721,0.2721,0.2721,0.2801,0.2764,0.2752,0.2674,0.2659,0.2584,0.2565,0.2533,0.258,0.2582,0.2609,0.2693,0.2821,0.2784,0.2648,0.2583,0.2383,0.2244,0.2257,0.2588,0.262,0.265,0.2571,0.2348,0.2348,0.1706,0.1701,0.1697]},{"header":{"parameterUnit":"m.s-1","parameterCategory":2,"la1":30.2991,"la2":30.254,"lo1":-89.0895,"lo2":-89.0444,"dy":0.0017,"dx":0.0017,"nx":28,"ny":28,"refTime":"2024-06-06T21:00:00:Z","depth":"0","parameterNumber":3,"parameterNumberName":"V-component_of_CURRENTS"},"data":[0,0,0,0,0,0,0,0,0,0,0,0,0,0,0,0,0,0,0,0,0,0,0,0,0,0,0,0,0,0,0,0,0,0,0,0,0,0,0,0,0,0,0,0,0,0,0,0,0,0,0,0,0,0,0,0,0,0,0.0253,0.0253,0,0.0223,0.0223,0.0222,0.0198,0.0198,0.0198,0.0198,0.0161,0.016,0.0159,0,0,0,0,0,0,0,0,0,0,0,0,0,0.0236,0.0237,0.0253,0.0253,0.0253,0.0223,0.0223,0.0222,0.0198,0.0198,0.0198,0.0198,0.0161,0.016,0.0159,0,0,0,0,0,0,0,0,0,0,0,0,0,0.0227,0.0237,0.0253,0.0238,0.0237,0.0223,0.0223,0.0222,0.0198,0.0198,0.0198,0.0198,0.0161,0.016,0.0159,0.0154,0,0,0.0155,0.0154,0,0,0,0,0,0,0,0,0.0228,0.0228,0.0241,0.0239,0.0237,0.0215,0.0203,0.0199,0.0199,0.0212,0.0198,0.0198,0.0179,0.0176,0.017,0.0153,0.0151,0.0155,0.0154,0.0153,0.0153,0,0,0,0,0,0,0,0.0229,0.0229,0.024,0.024,0.0238,0.0214,0.0213,0.0202,0.0196,0.0211,0.0209,0.0208,0.0178,0.0171,0.0168,0.015,0.0155,0.0153,0.0153,0.0152,0.0135,0.0136,0,0,0,0,0,0,0.0238,0.023,0.0241,0.0239,0.0233,0.0215,0.0214,0.0222,0.0196,0.0192,0.0208,0.0207,0.0173,0.017,0.0167,0.0178,0.0153,0.0152,0.0151,0.0135,0.0136,0.0136,0,0,0,0,0,0,0.0238,0.024,0.0242,0.0234,0.0233,0.0216,0.0225,0.0221,0.0218,0.0194,0.019,0.0209,0.0173,0.0169,0.0163,0.0176,0.0151,0.015,0.0135,0.0135,0.0136,0.0189,0,0,0,0,0,0,0.0238,0.024,0.0246,0.0235,0.0234,0.0244,0.0225,0.0221,0.0218,0.0216,0.0194,0.019,0.0172,0.0165,0.0162,0.0173,0.0149,0.0134,0.0135,0.0136,0.0187,0.0191,0.0195,0,0,0,0,0,0.0237,0.0252,0.0247,0.0248,0.0244,0.0245,0.0242,0.0228,0.0218,0.0223,0.0206,0.0191,0.0167,0.0164,0.016,0.0172,0.0134,0.0135,0.0136,0.0185,0.019,0.0195,0,0,0,0,0,0,0.0247,0.0251,0.0245,0.026,0.0256,0.0241,0.0243,0.0233,0.0223,0.0219,0.0196,0.0191,0.019,0.0173,0.0171,0.0168,0.0148,0.0148,0.0186,0.0191,0.0195,0.0213,0.0148,0,0,0,0,0,0.0254,0.0266,0.0261,0.0272,0.0273,0.0258,0.0255,0.0247,0.0236,0.0231,0.0216,0.0199,0.0189,0.0184,0.0171,0.0171,0.0149,0.0175,0.0179,0.0182,0.0194,0.0173,0.0176,0.0138,0.0138,0.0138,0,0,0.0259,0.0263,0.0269,0.0275,0.0269,0.0282,0.0256,0.0257,0.027,0.0229,0.0239,0.0214,0.0192,0.0192,0.019,0.018,0.018,0.0183,0.0187,0.0196,0.0174,0.0178,0.0181,0.0139,0.0139,0.0139,0,0,0.0283,0.0282,0.0302,0.0304,0.0302,0.0297,0.0302,0.0291,0.029,0.0293,0.0266,0.025,0.0238,0.0223,0.0215,0.0233,0.0202,0.0227,0.0264,0.0244,0.0247,0.0249,0.0219,0.0218,0.023,0.023,0.023,0,0.0288,0.0317,0.0306,0.0326,0.0336,0.031,0.0336,0.0331,0.032,0.0324,0.0306,0.0281,0.0256,0.0259,0.0261,0.0244,0.0223,0.0249,0.025,0.0252,0.0254,0.0222,0.022,0.0232,0.0232,0.0232,0.0232,0,0.0329,0.035,0.0362,0.0384,0.0391,0.0406,0.0403,0.0409,0.0401,0.039,0.0388,0.0348,0.0334,0.0319,0.0296,0.0297,0.0274,0.0257,0.024,0.0261,0.0225,0.0223,0.0236,0.0235,0.0234,0.0234,0,0,0.0354,0.0385,0.0392,0.0417,0.0425,0.0441,0.0464,0.0481,0.0503,0.0474,0.0499,0.0457,0.0422,0.041,0.037,0.0348,0.0329,0.0311,0.0309,0.0286,0.0276,0.0276,0.0273,0.0313,0.0313,0.0313,0.0244,0,0.0392,0.0448,0.0452,0.0506,0.0537,0.053,0.0559,0.0566,0.0561,0.0575,0.0529,0.053,0.0461,0.0456,0.0419,0.0362,0.0327,0.0349,0.0256,0.0253,0.0255,0.0272,0.0317,0.0261,0.0241,0.0241,0.024,0,0.0438,0.0472,0.0535,0.0584,0.0597,0.0625,0.0671,0.0692,0.0694,0.069,0.0666,0.0627,0.0591,0.0533,0.0432,0.045,0.0367,0.0311,0.0306,0.029,0.025,0.0238,0.0257,0.0154,0.0236,0.0237,0.0237,0,0.0479,0.0534,0.0591,0.0607,0.0653,0.0687,0.0712,0.0727,0.0765,0.0765,0.0789,0.0718,0.0708,0.0598,0.0472,0.0454,0.0365,0.0322,0.0238,0.0236,0.0249,0.0248,0.0165,0.0247,0.0247,0.0247,0.0247,0,0.0526,0.0573,0.0618,0.0652,0.0729,0.0738,0.0813,0.0827,0.0861,0.0923,0.085,0.0883,0.0727,0.0656,0.0514,0.038,0.039,0.0253,0.0226,0.0267,0.0269,0.0159,0.0091,0.0244,0.0245,0.0245,0.0246,0,0.0566,0.0593,0.0664,0.0726,0.0753,0.0809,0.0894,0.0946,0.0965,0.1049,0.106,0.1015,0.0929,0.0762,0.0596,0.0454,0.0257,0.0257,0.0313,0.0294,0.0116,0.0049,-0.007,-0.0115,0.0152,0.0151,0.0151,0,0.0592,0.0633,0.0723,0.0774,0.0808,0.0891,0.0954,0.0999,0.1066,0.1141,0.1195,0.1142,0.1135,0.0885,0.0635,0.0396,0.0264,0.0256,0.0224,0.0123,0.0028,-0.0024,-0.0057,0.025,0.025,0.0251,0.0251,0,0.064,0.0672,0.0732,0.0837,0.0916,0.1014,0.1112,0.1187,0.126,0.1345,0.1438,0.1444,0.1223,0.1025,0.0692,0.0507,0.0204,0.0258,0.0144,0.0097,0.0045,-0.0016,0.0264,0.0255,0.0255,0.0255,0.0254,0.0254,0.0675,0.0727,0.0806,0.0908,0.1002,0.1132,0.1225,0.1344,0.1486,0.1631,0.1625,0.1685,0.138,0.0949,0.0685,0.0256,0.0226,0.0124,0.0049,0.0003,-0.0026,0.0262,0.0231,0.023,0.023,0.0229,0.0229,0,0.0717,0.078,0.0872,0.0998,0.1107,0.1154,0.1327,0.1436,0.1623,0.1771,0.1868,0.1796,0.1427,0.1009,0.0435,0.012,-0.0004,-0.0059,-0.0121,-0.0149,0.0106,0.0127,0.0085,0.0085,0.0085,0.0085,0.0086,0.0086,0.0742,0.0831,0.0882,0.1061,0.1155,0.1312,0.1419,0.1596,0.1745,0.1954,0.2034,0.2051,0.1773,0.0767,0.0109,-0.0068,-0.0284,-0.0337,-0.0453,-0.0277,-0.0266,-0.0255,-0.0251,-0.0371,-0.0371,-0.0648,-0.0651,-0.0653]}],[{"header":{"parameterUnit":"m.s-1","parameterCategory":2,"la1":30.2991,"la2":30.254,"lo1":-89.0895,"lo2":-89.0444,"dy":0.0017,"dx":0.0017,"nx":28,"ny":28,"refTime":"2024-06-06T21:00:00:Z","depth":"2","parameterNumber":2,"parameterNumberName":"U-component_of_CURRENTS"},"data":[0,0,0,0,0,0,0,0,0,0,0,0,0,0,0,0,0,0,0,0,0,0,0,0,0,0,0,0,0,0,0,0,0,0,0,0,0,0,0,0,0,0,0,0,0,0,0,0,0,0,0,0,0,0,0,0,0,0,0.2594,0.2594,0,0.2597,0.2597,0.2597,0.2584,0.2584,0.2583,0.2583,0.2571,0.2571,0.2571,0,0,0,0,0,0,0,0,0,0,0,0,0,0.2589,0.2589,0.2594,0.2594,0.2594,0.2597,0.2597,0.2597,0.2584,0.2584,0.2583,0.2583,0.2571,0.2571,0.2571,0,0,0,0,0,0,0,0,0,0,0,0,0,0.259,0.2589,0.2594,0.259,0.259,0.2597,0.2597,0.2597,0.2584,0.2584,0.2583,0.2583,0.2571,0.2571,0.2571,0.2575,0,0,0.257,0.257,0,0,0,0,0,0,0,0,0.259,0.259,0.259,0.259,0.259,0.2592,0.2591,0.259,0.2584,0.2584,0.2583,0.2583,0.2578,0.2577,0.2576,0.2575,0.2574,0.257,0.257,0.257,0.257,0,0,0,0,0,0,0,0.259,0.259,0.2593,0.259,0.259,0.2592,0.2592,0.2591,0.2581,0.2584,0.2583,0.2587,0.2578,0.2576,0.2575,0.2574,0.257,0.257,0.257,0.257,0.262,0.2621,0,0,0,0,0,0,0.2593,0.2589,0.2593,0.2593,0.2591,0.2593,0.2592,0.259,0.2581,0.258,0.2587,0.2587,0.2577,0.2576,0.2575,0.2618,0.257,0.257,0.257,0.2618,0.262,0.2622,0,0,0,0,0,0,0.2593,0.2593,0.2593,0.2594,0.2594,0.2593,0.2591,0.259,0.2597,0.2584,0.2583,0.2596,0.2576,0.2575,0.2587,0.2616,0.257,0.257,0.2616,0.2619,0.2621,0.268,0,0,0,0,0,0,0.2593,0.2593,0.2597,0.2594,0.2594,0.26,0.2591,0.259,0.26,0.2599,0.2591,0.2589,0.2576,0.2588,0.2587,0.2615,0.2569,0.2615,0.2617,0.262,0.2676,0.2684,0.2691,0,0,0,0,0,0.2592,0.2595,0.2597,0.2598,0.2598,0.2601,0.2601,0.2599,0.2601,0.2604,0.2606,0.259,0.2605,0.2589,0.2588,0.2616,0.2613,0.2617,0.262,0.2673,0.2683,0.2691,0,0,0,0,0,0,0.2594,0.2594,0.2596,0.2599,0.2603,0.26,0.2605,0.2607,0.2612,0.2616,0.2603,0.2602,0.2625,0.2614,0.2596,0.264,0.2609,0.2612,0.265,0.2659,0.2666,0.2667,0.2569,0,0,0,0,0,0.2599,0.26,0.2603,0.2606,0.261,0.2612,0.2616,0.2617,0.2619,0.2621,0.2617,0.2622,0.2637,0.2641,0.2644,0.2664,0.2665,0.2684,0.2692,0.2698,0.2699,0.2734,0.2744,0.2632,0.2632,0.2632,0,0,0.2599,0.2602,0.2602,0.2607,0.2611,0.2624,0.2613,0.2623,0.2641,0.262,0.264,0.2644,0.2648,0.2674,0.2683,0.2667,0.2731,0.2702,0.2707,0.2705,0.2738,0.2749,0.2759,0.2634,0.2634,0.2634,0,0,0.2602,0.2606,0.261,0.2619,0.2632,0.2636,0.2644,0.2648,0.2657,0.2682,0.2677,0.2698,0.2712,0.2721,0.273,0.278,0.2768,0.2784,0.2821,0.2855,0.2865,0.2873,0.2893,0.2902,0.2788,0.2788,0.2788,0,0.2607,0.2609,0.2613,0.2626,0.2636,0.2646,0.2659,0.2676,0.2685,0.2697,0.2698,0.2738,0.2739,0.2779,0.28,0.2796,0.2808,0.2787,0.2865,0.2873,0.288,0.2898,0.2908,0.2791,0.2791,0.2791,0.279,0,0.2614,0.2623,0.2628,0.2648,0.2663,0.2673,0.2699,0.2718,0.2738,0.2751,0.2793,0.2805,0.2826,0.284,0.2839,0.2894,0.2883,0.287,0.2842,0.2895,0.2911,0.292,0.2796,0.2795,0.2794,0.2793,0,0,0.26,0.2626,0.2629,0.264,0.2673,0.2682,0.2726,0.2756,0.279,0.2815,0.286,0.2894,0.2897,0.2908,0.2911,0.2946,0.3014,0.2936,0.2936,0.2953,0.3086,0.3019,0.3022,0.3018,0.302,0.3022,0.3078,0,0.2602,0.2621,0.264,0.2666,0.2676,0.2708,0.2748,0.2784,0.2824,0.2872,0.2903,0.2949,0.2926,0.2954,0.2982,0.3013,0.304,0.2999,0.3034,0.3034,0.2966,0.3031,0.2774,0.2797,0.3086,0.3088,0.3089,0,0.2597,0.2611,0.2631,0.2669,0.2679,0.2707,0.2768,0.2806,0.2881,0.2917,0.2963,0.2992,0.3051,0.3032,0.3095,0.3072,0.3081,0.3099,0.3101,0.3021,0.2983,0.279,0.2802,0.3104,0.3102,0.3101,0.31,0,0.2568,0.2603,0.2615,0.2628,0.268,0.2706,0.2743,0.2815,0.2855,0.2954,0.3004,0.306,0.3109,0.3137,0.3164,0.3143,0.3235,0.3205,0.3145,0.314,0.2918,0.289,0.3245,0.3245,0.3244,0.3244,0.3244,0,0.2549,0.2558,0.2605,0.2611,0.2641,0.2692,0.2742,0.2797,0.2886,0.2937,0.3021,0.3075,0.3143,0.3196,0.32,0.3204,0.3258,0.3164,0.3157,0.2932,0.2906,0.3162,0.3151,0.3246,0.3246,0.3246,0.3245,0,0.2504,0.2533,0.2549,0.2604,0.2623,0.2648,0.2728,0.2766,0.2869,0.2949,0.2989,0.3108,0.3182,0.323,0.3293,0.3246,0.3264,0.3243,0.2972,0.2931,0.3135,0.3127,0.3186,0.3185,0.3183,0.3182,0.3181,0,0.2479,0.2483,0.2531,0.254,0.2563,0.261,0.264,0.2741,0.2788,0.295,0.2983,0.3107,0.3154,0.3228,0.319,0.3189,0.3249,0.2936,0.2844,0.3145,0.3133,0.3127,0.3121,0.2574,0.2568,0.2563,0.2559,0,0.2432,0.2452,0.2465,0.2486,0.2512,0.2536,0.2595,0.2627,0.2751,0.2821,0.2917,0.2982,0.3069,0.2951,0.2965,0.2926,0.2918,0.2837,0.3231,0.2633,0.2573,0.2559,0.2572,0.2516,0.252,0.2523,0.2526,0.2527,0.2397,0.239,0.2411,0.2415,0.2442,0.2447,0.243,0.2498,0.2543,0.2611,0.2753,0.2753,0.2776,0.2669,0.258,0.2507,0.271,0.2563,0.2575,0.2594,0.2517,0.2458,0.2365,0.2368,0.2371,0.2374,0.2376,0,0.233,0.2329,0.2336,0.2325,0.2301,0.2355,0.2376,0.2332,0.232,0.2416,0.2462,0.2273,0.2198,0.2226,0.2045,0.2037,0.1996,0.1948,0.1859,0.1905,0.1945,0.1833,0.1501,0.1498,0.1495,0.1492,0,0,0.2298,0.2263,0.2252,0.2178,0.2173,0.2102,0.2083,0.204,0.2059,0.2015,0.1987,0.214,0.2189,0.1828,0.1768,0.1601,0.1745,0.154,0.2248,0.2194,0.223,0.2312,0.2193,0,0,0,0,0]},{"header":{"parameterUnit":"m.s-1","parameterCategory":2,"la1":30.2991,"la2":30.254,"lo1":-89.0895,"lo2":-89.0444,"dy":0.0017,"dx":0.0017,"nx":28,"ny":28,"refTime":"2024-06-06T21:00:00:Z","depth":"2","parameterNumber":3,"parameterNumberName":"V-component_of_CURRENTS"},"data":[0,0,0,0,0,0,0,0,0,0,0,0,0,0,0,0,0,0,0,0,0,0,0,0,0,0,0,0,0,0,0,0,0,0,0,0,0,0,0,0,0,0,0,0,0,0,0,0,0,0,0,0,0,0,0,0,0,0,0.0273,0.0273,0,0.0246,0.0246,0.0245,0.0226,0.0226,0.0226,0.0226,0.0195,0.0195,0.0194,0,0,0,0,0,0,0,0,0,0,0,0,0,0.0258,0.0259,0.0273,0.0273,0.0273,0.0246,0.0246,0.0245,0.0226,0.0226,0.0226,0.0226,0.0196,0.0195,0.0194,0,0,0,0,0,0,0,0,0,0,0,0,0,0.025,0.0259,0.0273,0.0261,0.0259,0.0246,0.0245,0.0245,0.0226,0.0226,0.0226,0.0226,0.0196,0.0195,0.0194,0.0189,0,0,0.019,0.019,0,0,0,0,0,0,0,0,0.0251,0.0251,0.0263,0.0261,0.026,0.024,0.0229,0.0226,0.0226,0.0238,0.0226,0.0226,0.0211,0.0208,0.0202,0.0188,0.0186,0.019,0.0189,0.0189,0.0189,0,0,0,0,0,0,0,0.0251,0.0252,0.0262,0.0262,0.0261,0.0239,0.0238,0.0228,0.0224,0.0237,0.0235,0.0234,0.021,0.0203,0.0201,0.0186,0.019,0.0189,0.0189,0.0188,0.0172,0.0172,0,0,0,0,0,0,0.0259,0.0253,0.0262,0.0261,0.0256,0.0239,0.0238,0.0246,0.0225,0.0221,0.0234,0.0233,0.0205,0.0203,0.02,0.021,0.0189,0.0188,0.0187,0.0172,0.0172,0.0173,0,0,0,0,0,0,0.0259,0.0261,0.0264,0.0256,0.0255,0.024,0.0248,0.0245,0.0243,0.0223,0.0219,0.0235,0.0205,0.0202,0.0197,0.0208,0.0187,0.0186,0.0172,0.0172,0.0172,0.0219,0,0,0,0,0,0,0.0259,0.0261,0.0268,0.0257,0.0256,0.0264,0.0248,0.0245,0.0242,0.0241,0.0223,0.0219,0.0205,0.0199,0.0196,0.0206,0.0186,0.0171,0.0172,0.0172,0.0217,0.0221,0.0224,0,0,0,0,0,0.0259,0.0272,0.0268,0.0269,0.0266,0.0265,0.0263,0.025,0.0243,0.0247,0.0233,0.022,0.02,0.0199,0.0195,0.0205,0.0171,0.0172,0.0172,0.0216,0.022,0.0224,0,0,0,0,0,0,0.0267,0.0271,0.0267,0.028,0.0276,0.0262,0.0263,0.0255,0.0246,0.0244,0.0224,0.022,0.022,0.0205,0.0204,0.0201,0.0183,0.0183,0.0217,0.0221,0.0225,0.0241,0.0185,0,0,0,0,0,0.0273,0.0284,0.028,0.029,0.029,0.0277,0.0274,0.0267,0.0258,0.0254,0.0241,0.0227,0.0219,0.0215,0.0203,0.0203,0.0182,0.0206,0.0209,0.0212,0.0222,0.0199,0.0202,0.0174,0.0174,0.0174,0,0,0.0278,0.0281,0.0287,0.0292,0.0287,0.0298,0.0275,0.0276,0.0288,0.0252,0.0261,0.024,0.0221,0.0221,0.0219,0.0211,0.0207,0.0213,0.0216,0.0224,0.02,0.0203,0.0205,0.0175,0.0175,0.0175,0,0,0.0298,0.0298,0.0315,0.0317,0.0316,0.0311,0.0315,0.0306,0.0304,0.0308,0.0285,0.0271,0.0261,0.0247,0.024,0.0256,0.0227,0.025,0.0282,0.026,0.0262,0.0264,0.0234,0.0233,0.0252,0.0252,0.0252,0,0.0302,0.0329,0.0319,0.0337,0.0346,0.0323,0.0346,0.0342,0.0332,0.0335,0.032,0.0298,0.0276,0.0278,0.028,0.0266,0.0245,0.0269,0.0265,0.0266,0.0267,0.0237,0.0235,0.0254,0.0254,0.0254,0.0253,0,0.0338,0.0358,0.0368,0.0389,0.0395,0.0409,0.0406,0.0411,0.0404,0.0394,0.0392,0.0357,0.0345,0.0331,0.0311,0.0308,0.0288,0.0273,0.0257,0.0273,0.0239,0.0236,0.0258,0.0257,0.0256,0.0255,0,0,0.0359,0.0389,0.0395,0.0418,0.0426,0.044,0.0461,0.0476,0.0494,0.0468,0.0489,0.0453,0.0421,0.0411,0.0375,0.0351,0.033,0.0318,0.0315,0.0293,0.0275,0.0263,0.0258,0.0314,0.0314,0.0314,0.0246,0,0.0393,0.0444,0.0448,0.0499,0.0526,0.0521,0.0547,0.0553,0.0547,0.0557,0.0514,0.0514,0.0456,0.045,0.0415,0.0359,0.0326,0.0349,0.0259,0.0256,0.0247,0.0256,0.0273,0.0215,0.0243,0.0242,0.0242,0,0.0434,0.0465,0.0523,0.0569,0.0581,0.0606,0.0647,0.0666,0.0664,0.0658,0.0636,0.0599,0.0562,0.0513,0.0416,0.0434,0.0359,0.0306,0.0302,0.0275,0.0239,0.0203,0.0208,0.0237,0.0237,0.0238,0.0238,0,0.0469,0.052,0.0573,0.0588,0.0631,0.0662,0.0686,0.0697,0.073,0.0724,0.0741,0.0675,0.0662,0.0562,0.0443,0.0431,0.0335,0.0305,0.0219,0.0217,0.0207,0.0204,0.0235,0.0235,0.0235,0.0235,0.0235,0,0.0512,0.0554,0.0597,0.0628,0.0699,0.0709,0.0776,0.0787,0.0814,0.0865,0.0796,0.0817,0.0676,0.0602,0.0475,0.0343,0.0355,0.023,0.0203,0.0223,0.0222,0.0224,0.0224,0.0233,0.0233,0.0234,0.0234,0,0.0547,0.0572,0.0638,0.0695,0.0721,0.0773,0.085,0.0896,0.0908,0.0975,0.0983,0.093,0.0837,0.0682,0.0525,0.04,0.0266,0.0212,0.0241,0.0219,0.015,0.0153,0.0111,0.011,0.011,0.0109,0.0109,0,0.057,0.0608,0.0691,0.0738,0.077,0.0847,0.0906,0.0945,0.1002,0.1051,0.1094,0.1027,0.0998,0.0753,0.0526,0.0305,0.0269,0.0165,0.0145,0.0161,0.014,0.0144,0.0147,0.0141,0.0141,0.014,0.014,0,0.0613,0.0643,0.0698,0.0796,0.0869,0.0959,0.1047,0.111,0.1169,0.1225,0.1281,0.1262,0.1042,0.0827,0.052,0.0363,0.0201,0.0154,0.017,0.0176,0.0185,0.0165,0.0169,0.0139,0.0139,0.0139,0.0139,0.0139,0.0646,0.0692,0.0765,0.0858,0.0945,0.1061,0.1143,0.1239,0.1349,0.1436,0.1413,0.1382,0.1138,0.0749,0.0483,0.0193,0.0209,0.0096,0.0098,0.01,0.0122,0.0131,0.0077,0.0077,0.0076,0.0076,0.0076,0,0.0683,0.0739,0.0822,0.0937,0.1033,0.108,0.1231,0.1313,0.1448,0.1515,0.1554,0.1317,0.1076,0.0783,0.0368,0.0126,0.01,0.0032,0.0059,0.0063,0.0066,0.0087,0.0031,0.0031,0.003,0.0029,0,0,0.0705,0.0785,0.0828,0.0986,0.1072,0.1212,0.1303,0.1427,0.1508,0.1575,0.1553,0.1501,0.1162,0.085,0.052,0.0278,0.0222,0.0221,0.0284,0.036,0.0366,0.0131,0.0171,0,0,0,0,0]}],[{"header":{"parameterUnit":"m.s-1","parameterCategory":2,"la1":30.2991,"la2":30.254,"lo1":-89.0895,"lo2":-89.0444,"dy":0.0017,"dx":0.0017,"nx":28,"ny":28,"refTime":"2024-06-06T21:00:00:Z","depth":"4","parameterNumber":2,"parameterNumberName":"U-component_of_CURRENTS"},"data":[0,0,0,0,0,0,0,0,0,0,0,0,0,0,0,0,0,0,0,0,0,0,0,0,0,0,0,0,0,0,0,0,0,0,0,0,0,0,0,0,0,0,0,0,0,0,0,0,0,0,0,0,0,0,0,0,0,0,0.1687,0.1688,0,0.1732,0.1733,0.1733,0.1777,0.1778,0.1779,0.1779,0.1842,0.1843,0.1844,0,0,0,0,0,0,0,0,0,0,0,0,0,0.1641,0.1641,0.1687,0.1688,0.1688,0.1732,0.1733,0.1733,0.1777,0.1778,0.1779,0.178,0.1841,0.1843,0.1844,0,0,0,0,0,0,0,0,0,0,0,0,0,0.1669,0.1641,0.1687,0.1717,0.172,0.1732,0.1733,0.1733,0.1777,0.1778,0.1779,0.178,0.1841,0.1843,0.1844,0.1832,0,0,0.1849,0.1849,0,0,0,0,0,0,0,0,0.1668,0.1671,0.1712,0.1715,0.1718,0.1752,0.174,0.1768,0.1777,0.1754,0.1779,0.1781,0.1813,0.1817,0.1821,0.1835,0.1837,0.1849,0.185,0.185,0.1851,0,0,0,0,0,0,0,0.1665,0.1669,0.1703,0.1712,0.1716,0.1729,0.1734,0.1745,0.1776,0.1756,0.1759,0.1767,0.1815,0.1819,0.1823,0.1838,0.1849,0.185,0.1851,0.1851,0.1951,0.1953,0,0,0,0,0,0,0.1662,0.1667,0.1702,0.1705,0.1697,0.1729,0.1735,0.1739,0.1776,0.1783,0.1766,0.1769,0.1816,0.1821,0.1825,0.191,0.185,0.1852,0.1852,0.195,0.1952,0.1954,0,0,0,0,0,0,0.1661,0.1664,0.17,0.1689,0.1694,0.1729,0.1733,0.1739,0.1779,0.1783,0.1791,0.1804,0.1817,0.1823,0.1868,0.1909,0.1852,0.1854,0.1948,0.195,0.1953,0.2016,0,0,0,0,0,0,0.1659,0.1663,0.1684,0.1688,0.1695,0.1726,0.1732,0.1739,0.178,0.1785,0.1818,0.1822,0.1819,0.1866,0.187,0.191,0.1855,0.1945,0.1949,0.1952,0.2012,0.2021,0.2028,0,0,0,0,0,0.1657,0.1672,0.1685,0.169,0.1715,0.1727,0.1732,0.1759,0.1781,0.1799,0.1829,0.1823,0.189,0.1868,0.1872,0.1914,0.1944,0.1948,0.1952,0.2008,0.2019,0.2028,0,0,0,0,0,0,0.1664,0.1678,0.1692,0.1712,0.173,0.1736,0.1762,0.1779,0.1815,0.1835,0.1841,0.1847,0.1903,0.1899,0.1876,0.1953,0.1918,0.1923,0.196,0.197,0.1978,0.1973,0.1856,0,0,0,0,0,0.1674,0.1692,0.1703,0.1725,0.1736,0.1757,0.1775,0.1792,0.1816,0.1835,0.1857,0.1886,0.1915,0.1936,0.1954,0.1993,0.199,0.2025,0.2033,0.204,0.2039,0.2073,0.2084,0.1967,0.1967,0.1966,0,0,0.1684,0.1696,0.1708,0.1729,0.1748,0.1769,0.1771,0.1806,0.1837,0.1835,0.1896,0.1916,0.1932,0.1979,0.2004,0.1986,0.2073,0.2045,0.205,0.2046,0.2079,0.209,0.21,0.1969,0.1969,0.1968,0,0,0.1698,0.1724,0.174,0.1758,0.1792,0.1802,0.1821,0.1847,0.1878,0.1929,0.194,0.1985,0.2029,0.2044,0.2058,0.2122,0.2114,0.2138,0.2178,0.2212,0.2222,0.223,0.2244,0.2254,0.2144,0.2144,0.2144,0,0.1716,0.1731,0.1749,0.1769,0.1791,0.1822,0.1846,0.1877,0.1919,0.1945,0.1962,0.2041,0.2058,0.2109,0.2137,0.214,0.2153,0.2139,0.2222,0.223,0.2238,0.225,0.226,0.2147,0.2147,0.2147,0.2146,0,0.1728,0.1758,0.1772,0.1808,0.1834,0.1861,0.1898,0.1941,0.1988,0.2014,0.2088,0.2116,0.216,0.2181,0.2184,0.2249,0.2238,0.2227,0.2194,0.2253,0.2263,0.2272,0.2152,0.2151,0.215,0.2149,0,0,0.1718,0.177,0.178,0.1803,0.1858,0.1874,0.1938,0.1985,0.2035,0.2093,0.2154,0.2214,0.2235,0.2252,0.2265,0.2301,0.2371,0.2296,0.2297,0.2305,0.2443,0.2277,0.227,0.2381,0.2383,0.2385,0.2429,0,0.1725,0.1764,0.1793,0.1842,0.1863,0.1915,0.1967,0.2023,0.2084,0.2152,0.2201,0.2269,0.2261,0.2304,0.2335,0.2369,0.2397,0.2359,0.2388,0.2388,0.223,0.2275,0.239,0.2435,0.2437,0.2438,0.2439,0,0.1719,0.1748,0.1793,0.1856,0.1872,0.1917,0.2005,0.2058,0.2153,0.2205,0.2274,0.2316,0.2388,0.2378,0.2447,0.243,0.2441,0.2456,0.2458,0.2283,0.2238,0.2363,0.2454,0.2453,0.2452,0.2451,0.245,0,0.168,0.1744,0.1782,0.1805,0.1883,0.193,0.1987,0.208,0.2132,0.2253,0.231,0.2384,0.2447,0.2478,0.2509,0.2497,0.2575,0.2554,0.2408,0.2396,0.2504,0.2495,0.2594,0.2594,0.2594,0.2593,0.2593,0,0.165,0.1685,0.1776,0.1795,0.1854,0.1925,0.2004,0.2073,0.218,0.2237,0.234,0.2388,0.2482,0.2531,0.2538,0.2491,0.2595,0.2414,0.2397,0.253,0.2523,0.251,0.25,0.2595,0.2595,0.2594,0.2594,0,0.159,0.1651,0.1699,0.1799,0.1835,0.1885,0.2003,0.2051,0.2174,0.2258,0.2305,0.2421,0.2479,0.2536,0.2596,0.2511,0.2499,0.2455,0.2597,0.2588,0.2291,0.2284,0.2288,0.2283,0.2278,0.2274,0.2271,0,0.1555,0.1578,0.1691,0.1725,0.1777,0.1862,0.1912,0.2036,0.2084,0.2246,0.2268,0.2384,0.2439,0.2382,0.2456,0.2446,0.2415,0.2384,0.2325,0.2277,0.2261,0.2261,0.226,0.2264,0.2262,0.2261,0.226,0,0.149,0.1551,0.1592,0.1664,0.1727,0.1776,0.1863,0.188,0.2017,0.2148,0.2172,0.2195,0.225,0.2273,0.2285,0.2273,0.2391,0.2335,0.2344,0.2288,0.2247,0.2236,0.2241,0.2244,0.2246,0.2248,0.2249,0,0.145,0.1463,0.1533,0.1576,0.165,0.1663,0.172,0.1764,0.1822,0.1993,0.1994,0.2111,0.2225,0.2183,0.2194,0.2171,0.213,0.2043,0.2067,0.2085,0.1996,0.1912,0.179,0,0,0,0,0,0.1395,0.1394,0.1434,0.1467,0.1533,0.1573,0.1669,0.1728,0.1859,0.1821,0.1899,0.1937,0.1947,0.2006,0.1939,0.2105,0.2144,0.2017,0.2058,0.2155,0.2173,0.2085,0,0,0,0,0,0,0.1357,0.1394,0.1395,0.1366,0.1368,0.142,0.1475,0.1564,0.1548,0.169,0.1707,0.1811,0.1855,0.1966,0.1901,0.1917,0.1898,0.209,0.2084,0.2144,0.2161,0.2176,0.2092,0,0,0,0,0]},{"header":{"parameterUnit":"m.s-1","parameterCategory":2,"la1":30.2991,"la2":30.254,"lo1":-89.0895,"lo2":-89.0444,"dy":0.0017,"dx":0.0017,"nx":28,"ny":28,"refTime":"2024-06-06T21:00:00:Z","depth":"4","parameterNumber":3,"parameterNumberName":"V-component_of_CURRENTS"},"data":[0,0,0,0,0,0,0,0,0,0,0,0,0,0,0,0,0,0,0,0,0,0,0,0,0,0,0,0,0,0,0,0,0,0,0,0,0,0,0,0,0,0,0,0,0,0,0,0,0,0,0,0,0,0,0,0,0,0,0.0222,0.0222,0,0.0207,0.0207,0.0207,0.0201,0.0201,0.0201,0.0201,0.0187,0.0186,0.0186,0,0,0,0,0,0,0,0,0,0,0,0,0,0.0208,0.0208,0.0222,0.0222,0.0222,0.0207,0.0207,0.0207,0.0201,0.0201,0.0201,0.0201,0.0187,0.0186,0.0186,0,0,0,0,0,0,0,0,0,0,0,0,0,0.0205,0.0209,0.0222,0.0217,0.0217,0.0208,0.0207,0.0207,0.0201,0.0201,0.0201,0.0201,0.0187,0.0186,0.0186,0.018,0,0,0.0184,0.0183,0,0,0,0,0,0,0,0,0.0206,0.0206,0.0218,0.0218,0.0217,0.0206,0.0197,0.0198,0.0201,0.0206,0.0201,0.0201,0.0193,0.0192,0.0189,0.0179,0.0178,0.0183,0.0183,0.0183,0.0183,0,0,0,0,0,0,0,0.0206,0.0206,0.0216,0.0218,0.0217,0.0203,0.0203,0.0197,0.0199,0.0206,0.0205,0.0205,0.0193,0.0189,0.0188,0.0178,0.0184,0.0183,0.0183,0.0182,0.0174,0.0175,0,0,0,0,0,0,0.021,0.0207,0.0216,0.0215,0.0212,0.0204,0.0204,0.0209,0.0199,0.0198,0.0204,0.0204,0.019,0.0189,0.0188,0.02,0.0183,0.0182,0.0182,0.0174,0.0175,0.0175,0,0,0,0,0,0,0.021,0.0212,0.0217,0.0211,0.021,0.0204,0.021,0.0209,0.0211,0.0198,0.0197,0.0209,0.019,0.0189,0.0189,0.0199,0.0182,0.0181,0.0174,0.0174,0.0175,0.0213,0,0,0,0,0,0,0.021,0.0212,0.0218,0.0211,0.0211,0.022,0.021,0.0209,0.021,0.021,0.0202,0.02,0.019,0.019,0.0189,0.0198,0.0181,0.0174,0.0174,0.0175,0.0211,0.0214,0.0217,0,0,0,0,0,0.021,0.022,0.0219,0.022,0.022,0.022,0.0219,0.0214,0.0211,0.0215,0.0209,0.02,0.0191,0.019,0.0188,0.0197,0.0174,0.0174,0.0175,0.021,0.0214,0.0217,0,0,0,0,0,0,0.0216,0.022,0.0219,0.0229,0.0228,0.0219,0.0222,0.0218,0.0216,0.0217,0.0204,0.0202,0.0206,0.0195,0.0194,0.0195,0.018,0.0181,0.0208,0.0211,0.0214,0.0226,0.018,0,0,0,0,0,0.0221,0.0231,0.0229,0.0237,0.0238,0.0231,0.0231,0.0228,0.0224,0.0223,0.0217,0.0209,0.0205,0.0204,0.0197,0.0198,0.018,0.0201,0.0204,0.0207,0.0214,0.0194,0.0196,0.0176,0.0176,0.0176,0,0,0.0225,0.0229,0.0234,0.0239,0.0238,0.0248,0.0232,0.0235,0.0246,0.0222,0.0235,0.022,0.0207,0.021,0.021,0.0203,0.0201,0.0207,0.021,0.0216,0.0194,0.0196,0.0198,0.0176,0.0176,0.0176,0,0,0.024,0.0243,0.0257,0.026,0.0262,0.026,0.0264,0.026,0.0262,0.0269,0.0253,0.0245,0.0242,0.0232,0.0228,0.0241,0.0217,0.0237,0.0262,0.0242,0.0244,0.0245,0.0217,0.0216,0.0239,0.0239,0.0239,0,0.0245,0.0266,0.026,0.0275,0.0284,0.027,0.0289,0.0288,0.0285,0.029,0.0281,0.0269,0.0254,0.0257,0.026,0.0249,0.023,0.0252,0.0247,0.0247,0.0248,0.0219,0.0217,0.0241,0.024,0.024,0.024,0,0.0272,0.029,0.0298,0.0316,0.0324,0.0336,0.0337,0.0345,0.0344,0.0338,0.034,0.0316,0.031,0.03,0.0285,0.0282,0.0264,0.0253,0.024,0.0252,0.0221,0.0218,0.0243,0.0243,0.0242,0.0242,0,0,0.0284,0.0312,0.0318,0.0339,0.0349,0.0362,0.0382,0.0396,0.0413,0.0398,0.0416,0.0392,0.037,0.0363,0.0337,0.0315,0.0295,0.0288,0.0286,0.0264,0.0244,0.0225,0.0219,0.0282,0.0282,0.0282,0.0218,0,0.031,0.0351,0.0358,0.0402,0.0424,0.0426,0.0449,0.0457,0.0457,0.0467,0.0437,0.044,0.0397,0.0396,0.0366,0.0318,0.029,0.0313,0.0232,0.023,0.0214,0.0216,0.0281,0.0216,0.0215,0.0214,0.0214,0,0.0338,0.0365,0.0413,0.0456,0.0467,0.0491,0.0529,0.0549,0.055,0.0548,0.0534,0.0508,0.0479,0.0443,0.036,0.0377,0.0315,0.0269,0.0266,0.0235,0.0206,0.0201,0.0208,0.0209,0.0209,0.0209,0.021,0,0.0359,0.0406,0.0451,0.0465,0.0507,0.0536,0.0561,0.0574,0.0603,0.0603,0.0616,0.0566,0.0557,0.0474,0.0375,0.037,0.0279,0.026,0.0181,0.0178,0.0198,0.0197,0.02,0.02,0.02,0.0201,0.0201,0,0.0385,0.0423,0.0469,0.0495,0.0558,0.0572,0.0633,0.0646,0.0672,0.0709,0.0663,0.0671,0.0565,0.05,0.0396,0.028,0.0292,0.0187,0.0164,0.0214,0.0216,0.0195,0.0195,0.0198,0.0199,0.0199,0.02,0,0.0403,0.0431,0.0488,0.0545,0.0572,0.0619,0.0694,0.0731,0.0747,0.0796,0.0804,0.0757,0.067,0.0549,0.0415,0.0318,0.0203,0.0156,0.0218,0.0199,0.0108,0.0111,0.0065,0.0064,0.0063,0.0062,0.0061,0,0.0415,0.0446,0.0529,0.0572,0.0605,0.0677,0.0729,0.077,0.0812,0.0846,0.0871,0.0811,0.0759,0.0556,0.0418,0.0218,0.0184,0.0116,0.0109,0.0114,0.0095,0.01,0.0104,0.006,0.0059,0.0059,0.0059,0,0.0436,0.0469,0.0518,0.0606,0.0674,0.0754,0.0829,0.0866,0.0915,0.0932,0.0924,0.0826,0.0726,0.056,0.0406,0.026,0.0156,0.0105,0.0106,0.0099,0.0107,0.0091,0.0096,0.0056,0.0056,0.0056,0.0057,0,0.0454,0.049,0.0556,0.0636,0.0722,0.0806,0.0846,0.0897,0.0941,0.0971,0.0964,0.0857,0.0798,0.0581,0.044,0.0295,0.0251,0.0189,0.0185,0.0187,0.0235,0.0264,0.0244,0,0,0,0,0,0.0467,0.051,0.058,0.0669,0.0753,0.0809,0.0903,0.0935,0.0982,0.0982,0.0976,0.0881,0.0679,0.0594,0.0446,0.0408,0.0218,0.0227,0.0143,0.0037,0.0041,0.0075,0,0,0,0,0,0,0.0476,0.054,0.0577,0.0682,0.0745,0.0845,0.0908,0.0943,0.0942,0.0963,0.0859,0.0823,0.0627,0.0762,0.0436,0.0395,0.0315,0.014,0.0136,0.0035,0.0038,0.0041,0.0078,0,0,0,0,0]}]]